Tracking 29892 objects as of 21-Nov-2024
HD Live streaming from Space Station
objects crossing your sky now

COSMOS 2499 DEB

Track COSMOS 2499 DEB now!
10-day predictions


NORAD ID: 56581
Int'l Code: 2014-028BQ
Perigee: 985.8 km
Apogee: 1,377.4 km
Inclination: 82.2 °
Period: 108.9 minutes
Semi major axis: 7552 km
RCS: Unknown
Launch date: May 23, 2014
Source: Commonwealth of Independent States (former USSR) (CIS)
Launch site: PLESETSK MISSILE AND SPACE COMPLEX (PKMTR)

Note: This is SATELLITE DEBRIS
Your satellite tracking list
Your tracking list is empty




NASA's NSSDC Master Catalog

Two Line Element Set (TLE):
1 56581U 14028BQ  24321.51085736  .00007679  00000-0  15332-1 0  9991
2 56581  82.2446 242.5124 0259274 190.6734 168.8827 13.22689989 22070
Source of the keplerian elements: AFSPC